Regional Weather Roundup
Issued by NWS

Home | Current Version | Previous Version | Text Only | Print | Product List | Glossary On
Versions: 1 2 3 4 5 6 7 8 9 10 11 12 13 14 15 16 17 18 19 20 21 22 23 24 25 26 27 28 29 30 31 32 33 34 35 36 37 38 39 40 41 42 43 44 45 46 47 48 49 50
000
ASUS43 KLOT 261302
RWRIL

ILLINOIS REGIONAL WEATHER ROUNDUP
NATIONAL WEATHER SERVICE CHICAGO/ROMEOVILLE IL
800 AM CDT SUN APR 26 2015

NOTE: "FAIR" INDICATES FEW OR NO CLOUDS BELOW 12,000 FEET WITH NO
SIGNIFICANT WEATHER AND/OR OBSTRUCTIONS TO VISIBILITY.

* THESE STATIONS ARE NOT UNDER NWS QUALITY CONTROL. THEY ALSO MAY NOT
  REPORT WEATHER SUCH AS PRECIPITATION OR FOG.

ILZ001-002-007-009-015-016-024-261400-
NORTHWEST ILLINOIS

CITY           SKY/WX    TMP DP  RH WIND       PRES   REMARKS
MOLINE         SUNNY     42  28  57 NE5       30.00R
STERLING*      SUNNY     43  28  56 NE7       30.01R
$$

ILZ003-004-008-010-011-017-018-261400-
NORTH CENTRAL ILLINOIS

CITY           SKY/WX    TMP DP  RH WIND       PRES   REMARKS
ROCKFORD       MOSUNNY   40  27  59 N8        30.03R
$$

ILZ005-006-012>014-019>023-261400-
NORTHEAST ILLINOIS

CITY           SKY/WX    TMP DP  RH WIND       PRES   REMARKS
CHICAGO-OHARE  SUNNY     43  30  60 NE12      29.99R
CHICAGO-MIDWAY MOSUNNY   45  29  53 NE14      29.99R
AURORA         SUNNY     42  30  62 NE10      29.99R
WAUKEGAN       SUNNY     42  32  67 N9        30.00R
DUPAGE AIRPORT SUNNY     42  30  62 NE10      29.99R
WHEELING       SUNNY     44  29  55 NE7       30.01R
NORTHERLY ISL    N/A     42  33  70 MISG        N/A
$$

LMZ740>746-261400-
SOUTHERN LAKE MICHIGAN

STATION/POSITION SKY/WX   TEMP    WIND        PRES    VSBY  WAVE
                          AIR SEA DIR/SP/G                  HT/PER
                          (F)     (DEG/KT/KT) (MB)    (MI)  (FT/S)
HARRISON CRIB              40      20/ 16/ 18   N/A
BURNHAM HARBOR             41      20/ 15/ 17   N/A
CALUMET HARBOR             41      10/ 13/ 17   N/A
BURNS HARBOR               42      40/ 15/ 17 1014.6R
MICHIGAN CITY              40      30/ 16/ 17   N/A
MICHIGAN CITY 6N           42 45   70/ 14/ 17   N/A           4/ 6
$$

ILZ025>027-034>036-040-047-049-050-058-095>099-261400-
WEST-CENTRAL ILLINOIS

CITY           SKY/WX    TMP DP  RH WIND       PRES   REMARKS
QUINCY         CLOUDY    42  34  73 NE9       29.96R
$$

ILZ028>032-037-038-041>044-048-051>054-059>061-261400-
CENTRAL ILLINOIS

CITY           SKY/WX    TMP DP  RH WIND       PRES   REMARKS
DECATUR        CLOUDY    45  37  73 N12       29.94R
PEORIA         SUNNY     45  31  58 NE8       29.97R
SPRINGFIELD    SUNNY     44  35  70 NE12      29.96R
TAYLORVILLE    NOT AVBL
$$

ILZ033-039-045-046-055>057-062-063-261400-
EAST-CENTRAL ILLINOIS

CITY           SKY/WX    TMP DP  RH WIND       PRES   REMARKS
CHAMPAIGN      MOSUNNY   43  36  76 N7        29.93R
MATTOON        SUNNY     45  35  68 NE13      29.90R
$$

ILZ079-100>102-261400-
SOUTHWEST ILLINOIS

CITY           SKY/WX    TMP DP  RH WIND       PRES   REMARKS
BELLEVILLE     CLOUDY    47  43  84 N9        29.88R
CAHOKIA*       CLOUDY    48  40  73 N13       29.90R
$$

ILZ064>066-069>071-074>076-080>082-084>086-088>090-092>094-261400-
SOUTH-CENTRAL ILLINOIS

CITY           SKY/WX    TMP DP  RH WIND       PRES   REMARKS
CARBONDALE     CLOUDY    49  44  83 N10       29.85R
MARION         CLOUDY    48  45  87 N15       29.85R
MT. VERNON     CLOUDY    46  37  71 NE12G17   29.87R
$$

ILZ067-068-072-073-078-083-087-091-261400-
SOUTHEAST ILLINOIS

CITY           SKY/WX    TMP DP  RH WIND       PRES   REMARKS
LAWRENCEVILLE  MOSUNNY   47  36  65 NE17      29.88R
$$

ABBREVIATIONS USED IN REMARKS
   TC - TEMPERATURE IN CELSIUS
  WCI - WIND CHILL INDEX
   HX - HEAT INDEX
  VSB - VISIBILITY
$$




USA.gov is the U.S. government's official web portal to all federal, state and local government web resources and services.